TimeCDT,TemperatureF,Dew PointF,Humidity,Sea Level PressureIn,VisibilityMPH,Wind Direction,Wind SpeedMPH,Gust SpeedMPH,PrecipitationIn,Events,Conditions,WindDirDegrees,DateUTC
12:15 AM,43.3,43.3,100,29.97,1.2,Calm,Calm,-,N/A,,Mist,0,2013-09-25 05:15:00
12:35 AM,43.7,43.7,100,29.98,3.0,Calm,Calm,-,N/A,,Clear,0,2013-09-25 05:35:00
12:55 AM,43.9,43.9,100,29.98,5.0,Calm,Calm,-,N/A,,Clear,0,2013-09-25 05:55:00
1:15 AM,42.3,42.3,100,29.98,1.5,Calm,Calm,-,N/A,,Mist,0,2013-09-25 06:15:00
1:35 AM,42.1,42.1,100,29.99,3.0,Calm,Calm,-,N/A,,Clear,0,2013-09-25 06:35:00
1:55 AM,41.7,41.7,100,29.99,5.0,Calm,Calm,-,N/A,,Clear,0,2013-09-25 06:55:00
2:15 AM,41.4,41.4,100,30.00,4.0,Calm,Calm,-,N/A,,Clear,0,2013-09-25 07:15:00
2:35 AM,40.1,40.1,100,29.99,10.0,Calm,Calm,-,N/A,,Clear,0,2013-09-25 07:35:00
2:55 AM,40.1,40.1,100,30.00,5.0,Calm,Calm,-,N/A,,Clear,0,2013-09-25 07:55:00
3:15 AM,40.1,40.1,100,30.00,7.0,Calm,Calm,-,N/A,,Scattered Clouds,0,2013-09-25 08:15:00
3:35 AM,39.4,39.4,100,30.00,7.0,Calm,Calm,-,N/A,,Mostly Cloudy,0,2013-09-25 08:35:00
3:55 AM,39.7,39.7,100,30.00,4.0,Calm,Calm,-,N/A,,Overcast,0,2013-09-25 08:55:00
4:15 AM,39.0,39.0,100,30.00,0.8,Calm,Calm,-,N/A,,Overcast,0,2013-09-25 09:15:00
4:35 AM,39.4,39.4,100,30.00,0.2,Calm,Calm,-,N/A,Fog,Fog,0,2013-09-25 09:35:00
4:55 AM,38.7,38.7,100,30.00,0.2,Calm,Calm,-,N/A,Fog,Fog,0,2013-09-25 09:55:00
5:15 AM,38.3,38.3,100,30.00,3.0,Calm,Calm,-,N/A,,Overcast,0,2013-09-25 10:15:00
5:35 AM,38.5,38.5,100,30.01,0.2,Calm,Calm,-,N/A,Fog,Fog,0,2013-09-25 10:35:00
5:55 AM,39.6,39.6,100,30.01,0.2,Calm,Calm,-,N/A,Fog,Fog,0,2013-09-25 10:55:00
6:15 AM,40.1,40.1,100,30.00,0.2,Calm,Calm,-,N/A,Fog,Fog,0,2013-09-25 11:15:00
6:35 AM,40.3,40.3,100,30.01,0.2,Calm,Calm,-,N/A,Fog,Fog,0,2013-09-25 11:35:00
6:55 AM,41.2,41.2,100,30.01,0.2,Calm,Calm,-,N/A,Fog,Fog,0,2013-09-25 11:55:00
7:15 AM,43.3,43.3,100,30.01,0.2,Calm,Calm,-,N/A,Fog,Fog,0,2013-09-25 12:15:00
7:35 AM,43.7,43.7,100,30.02,0.2,Calm,Calm,-,N/A,Fog,Fog,0,2013-09-25 12:35:00
7:55 AM,44.2,44.2,100,30.02,0.2,Calm,Calm,-,N/A,Fog,Fog,0,2013-09-25 12:55:00
8:15 AM,44.4,44.4,100,30.02,0.2,Calm,Calm,-,N/A,Fog,Fog,0,2013-09-25 13:15:00
8:35 AM,45.1,45.1,100,30.03,0.2,Calm,Calm,-,N/A,Fog,Fog,0,2013-09-25 13:35:00
8:55 AM,46.4,46.4,100,30.03,0.2,Calm,Calm,-,N/A,Fog,Fog,0,2013-09-25 13:55:00
9:15 AM,47.1,47.1,100,30.03,0.2,Calm,Calm,-,N/A,Fog,Fog,0,2013-09-25 14:15:00
9:35 AM,47.8,47.8,100,30.03,0.2,Calm,Calm,-,N/A,Fog,Fog,0,2013-09-25 14:35:00
9:55 AM,48.6,48.6,100,30.03,0.2,Calm,Calm,-,N/A,Fog,Fog,0,2013-09-25 14:55:00
10:15 AM,50.0,50.0,100,30.03,3.0,Calm,Calm,-,N/A,,Overcast,0,2013-09-25 15:15:00
10:35 AM,51.4,51.4,100,30.03,5.0,Calm,Calm,-,N/A,,Overcast,0,2013-09-25 15:35:00
10:55 AM,54.1,54.0,99,30.03,10.0,NE,3.5,-,N/A,,Mostly Cloudy,50,2013-09-25 15:55:00
11:15 AM,57.6,51.3,79,30.03,10.0,Calm,Calm,-,N/A,,Mostly Cloudy,0,2013-09-25 16:15:00
11:35 AM,59.7,50.9,73,30.02,10.0,Calm,Calm,-,N/A,,Mostly Cloudy,0,2013-09-25 16:35:00
11:55 AM,63.1,49.3,61,30.02,10.0,SE,8.1,-,N/A,,Mostly Cloudy,130,2013-09-25 16:55:00
12:15 PM,64.0,49.1,58,30.01,10.0,ESE,6.9,-,N/A,,Scattered Clouds,120,2013-09-25 17:15:00
12:35 PM,66.4,48.6,53,30.00,10.0,ESE,5.8,-,N/A,,Scattered Clouds,110,2013-09-25 17:35:00
12:55 PM,67.3,48.7,51,30.00,10.0,SSE,6.9,-,N/A,,Scattered Clouds,160,2013-09-25 17:55:00
1:15 PM,67.1,48.0,50,29.99,10.0,SSE,8.1,-,N/A,,Scattered Clouds,160,2013-09-25 18:15:00
1:35 PM,67.8,47.5,48,29.98,10.0,SE,8.1,-,N/A,,Clear,130,2013-09-25 18:35:00
1:55 PM,68.4,47.5,47,29.98,10.0,ESE,6.9,-,N/A,,Clear,120,2013-09-25 18:55:00
2:15 PM,69.1,47.7,46,29.97,10.0,SSE,5.8,-,N/A,,Clear,160,2013-09-25 19:15:00
2:35 PM,70.2,47.5,44,29.96,10.0,SSE,10.4,-,N/A,,Clear,160,2013-09-25 19:35:00
2:55 PM,70.3,47.1,43,29.96,10.0,ESE,3.5,-,N/A,,Clear,110,2013-09-25 19:55:00
3:15 PM,71.1,45.9,40,29.96,10.0,SSE,8.1,-,N/A,,Clear,150,2013-09-25 20:15:00
3:55 PM,71.2,44.8,39,29.95,10.0,SSE,6.9,-,N/A,,Clear,160,2013-09-25 20:55:00
4:15 PM,70.9,46.8,42,29.94,10.0,SE,3.5,-,N/A,,Clear,140,2013-09-25 21:15:00
4:35 PM,70.9,46.6,42,29.94,10.0,SE,5.8,-,N/A,,Clear,140,2013-09-25 21:35:00
4:55 PM,71.1,46.8,42,29.94,10.0,ESE,5.8,-,N/A,,Clear,120,2013-09-25 21:55:00
5:15 PM,70.7,47.3,43,29.94,10.0,SE,4.6,-,N/A,,Clear,130,2013-09-25 22:15:00
5:35 PM,69.8,47.8,46,29.94,10.0,ESE,5.8,-,N/A,,Clear,120,2013-09-25 22:35:00
5:55 PM,69.1,48.0,47,29.95,10.0,SE,5.8,-,N/A,,Clear,140,2013-09-25 22:55:00
6:15 PM,67.6,48.4,50,29.94,10.0,SE,4.6,-,N/A,,Clear,140,2013-09-25 23:15:00
6:35 PM,65.7,49.1,55,29.94,10.0,SE,3.5,-,N/A,,Clear,130,2013-09-25 23:35:00
6:55 PM,61.7,50.2,66,29.94,10.0,ESE,3.5,-,N/A,,Clear,120,2013-09-25 23:55:00
7:15 PM,56.8,50.9,80,29.95,10.0,Calm,Calm,-,N/A,,Clear,0,2013-09-26 00:15:00
7:35 PM,54.5,51.1,88,29.95,10.0,ESE,4.6,-,N/A,,Clear,110,2013-09-26 00:35:00
7:55 PM,52.0,50.0,93,29.95,10.0,ESE,3.5,-,N/A,,Clear,110,2013-09-26 00:55:00
8:15 PM,51.4,50.5,97,29.96,10.0,ESE,3.5,-,N/A,,Clear,120,2013-09-26 01:15:00
8:35 PM,50.4,50.0,99,29.96,10.0,East,4.6,-,N/A,,Clear,80,2013-09-26 01:35:00
8:55 PM,50.0,50.0,100,29.95,10.0,East,3.5,-,N/A,,Clear,90,2013-09-26 01:55:00
9:15 PM,47.8,47.7,99,29.96,10.0,Calm,Calm,-,N/A,,Clear,0,2013-09-26 02:15:00
9:35 PM,48.6,48.6,100,29.96,10.0,Calm,Calm,-,N/A,,Clear,0,2013-09-26 02:35:00
9:55 PM,46.0,46.0,100,29.96,7.0,Calm,Calm,-,N/A,,Clear,0,2013-09-26 02:55:00
10:15 PM,44.8,44.8,100,29.97,5.0,Calm,Calm,-,N/A,,Clear,0,2013-09-26 03:15:00
10:35 PM,46.4,46.4,100,29.97,5.0,Calm,Calm,-,N/A,,Clear,0,2013-09-26 03:35:00
10:55 PM,43.7,43.7,100,29.97,7.0,Calm,Calm,-,N/A,,Clear,0,2013-09-26 03:55:00
11:15 PM,43.3,43.3,100,29.97,5.0,Calm,Calm,-,N/A,,Clear,0,2013-09-26 04:15:00
11:35 PM,42.4,42.4,100,29.97,5.0,Calm,Calm,-,N/A,,Clear,0,2013-09-26 04:35:00
11:55 PM,43.9,43.9,100,29.97,1.2,Calm,Calm,-,N/A,,Mist,0,2013-09-26 04:55:00